Weather History for Frankfort, KY

Change the Weather History Date:

Monday, December 23, 2013

  Actual Average Record
Temperature  
Mean Temperature 32 °F 33 °F  
Max Temperature 38 °F 42 °F 68 °F (1933)
Min Temperature 26 °F 24 °F -16 °F (1989)
Degree Days  
Heating Degree Days 33 32  
Month to date heating degree days 621 662  
Since 1 July heating degree days 1664 1573  
Cooling Degree Days 0 0  
Month to date cooling degree days 0 0  
Year to date cooling degree days 1127 1155  
Moisture  
Dew Point 27 °F    
Average Humidity 80    
Maximum Humidity 100    
Minimum Humidity 59    
Precipitation  
Precipitation 0.01 in 0.13 in 2.48 in (1921)
Month to date precipitation 4.40 3.09  
Year to date precipitation 49.62 44.70  
Sea Level Pressure  
Sea Level Pressure 30.26 in    
Wind  
Wind Speed 7 mph (WNW)    
Max Wind Speed 15 mph    
Max Gust Speed 21 mph    
Visibility 10 miles    
Events      
T = Trace of Precipitation, MM = Missing Value Source: NWS Daily Summary

Daily Weather History Graph

Daily Weather History Graph

Search for Another Location

Airport:

Trip Planner

Search our weather history database for the weather conditions in past years. The results will help you decide how hot, cold, wet, or windy it might be!

Date:

Astronomy

Dec. 23, 2013 Rise Set
Actual Time 7:53 AM EST 5:24 PM EST
Civil Twilight 7:23 AM EST 5:53 PM EST
Nautical Twilight 6:50 AM EST 6:27 PM EST
Astronomical Twilight 6:18 AM EST 6:59 PM EST
Moon 11:28 PM EST (12/23) 11:23 AM EST (12/23)
Length of Visible Light 10h 29m
Length of Day
9h 30m
Waning Gibbous, 68% of the Moon is Illuminated
Dec 23
Waning Gibbous
Dec 25
Last Quarter
Jan 1
New
Jan 7
First Quarter
Jan 15
Full

Hourly Weather History & Observations

Time (EST) Temp. Windchill Dew Point Humidity Pressure Visibility Wind Dir Wind Speed Gust Speed Precip Events Conditions
12:29 AM 37.9 °F 34.4 °F 37.0 °F 97% 30.08 in 10.0 mi WNW 4.6 mph - N/A   Overcast
12:37 AM 37.9 °F 34.4 °F 37.0 °F 97% 30.08 in 10.0 mi West 4.6 mph - N/A   Overcast
12:53 AM 37.9 °F 32.7 °F 35.1 °F 89% 30.10 in 10.0 mi Variable 6.9 mph - 0.00 in   Overcast
1:42 AM 37.0 °F 31.6 °F 34.0 °F 89% 30.10 in 10.0 mi WNW 6.9 mph - N/A   Overcast
1:51 AM 37.4 °F 30.8 °F 33.8 °F 87% 30.10 in 10.0 mi WNW 9.2 mph - N/A   Overcast
1:53 AM 37.0 °F 31.0 °F 34.0 °F 89% 30.11 in 10.0 mi WNW 8.1 mph - N/A   Overcast
2:25 AM 36.0 °F 29.0 °F 33.1 °F 89% 30.11 in 10.0 mi WNW 9.2 mph - 0.01 in   Overcast
2:34 AM 36.0 °F 29.0 °F 33.1 °F 89% 30.11 in 10.0 mi WNW 9.2 mph - 0.01 in   Overcast
2:53 AM 36.0 °F 31.1 °F 33.1 °F 89% 30.13 in 9.0 mi WNW 5.8 mph - 0.01 in   Overcast
3:21 AM 36.0 °F 30.3 °F 34.0 °F 93% 30.13 in 8.0 mi WNW 6.9 mph - 0.00 in   Overcast
3:53 AM 35.1 °F 29.3 °F 33.1 °F 92% 30.16 in 10.0 mi WNW 6.9 mph - 0.00 in   Overcast
4:02 AM 35.1 °F 28.6 °F 32.0 °F 89% 30.16 in 10.0 mi NW 8.1 mph - N/A   Overcast
4:38 AM 34.0 °F 27.2 °F 30.9 °F 89% 30.16 in 10.0 mi WNW 8.1 mph - N/A   Overcast
4:53 AM 34.0 °F 26.6 °F 30.0 °F 85% 30.17 in 10.0 mi WNW 9.2 mph - N/A   Overcast
5:53 AM 34.0 °F 28.0 °F 28.0 °F 79% 30.20 in 10.0 mi West 6.9 mph - N/A   Overcast
6:53 AM 33.1 °F 24.9 °F 27.0 °F 78% 30.24 in 10.0 mi WNW 10.4 mph - N/A   Overcast
7:53 AM 33.1 °F 24.9 °F 26.1 °F 75% 30.29 in 10.0 mi NW 10.4 mph - N/A   Overcast
8:53 AM 33.1 °F 24.9 °F 25.0 °F 72% 30.32 in 10.0 mi NNW 10.4 mph - N/A   Overcast
9:35 AM 34.0 °F 28.0 °F 24.1 °F 67% 30.32 in 10.0 mi NW 6.9 mph - N/A   Overcast
9:53 AM 34.0 °F 26.6 °F 24.1 °F 67% 30.35 in 10.0 mi NW 9.2 mph - N/A   Overcast
10:07 AM 34.0 °F 28.8 °F 25.0 °F 70% 30.34 in 10.0 mi Variable 5.8 mph - N/A   Overcast
10:53 AM 34.0 °F 28.0 °F 26.1 °F 73% 30.36 in 10.0 mi WNW 6.9 mph - N/A   Overcast
11:53 AM 33.1 °F 26.9 °F 25.0 °F 72% 30.38 in 10.0 mi NW 6.9 mph - N/A   Overcast
12:53 PM 35.1 °F 30.1 °F 24.1 °F 64% 30.36 in 10.0 mi NNW 5.8 mph 17.3 mph N/A   Overcast
1:32 PM 35.1 °F 28.6 °F 23.0 °F 61% 30.34 in 10.0 mi NNW 8.1 mph - N/A   Scattered Clouds
1:53 PM 35.1 °F 28.6 °F 23.0 °F 61% 30.36 in 10.0 mi NW 8.1 mph - N/A   Scattered Clouds
2:53 PM 36.0 °F 29.6 °F 23.0 °F 59% 30.35 in 10.0 mi West 8.1 mph - N/A   Partly Cloudy
3:53 PM 34.0 °F 29.8 °F 23.0 °F 64% 30.36 in 10.0 mi West 4.6 mph - N/A   Partly Cloudy
4:53 PM 34.0 °F 29.8 °F 23.0 °F 64% 30.38 in 10.0 mi WNW 4.6 mph - N/A   Mostly Cloudy
5:53 PM 32.0 °F 27.5 °F 23.0 °F 69% 30.39 in 10.0 mi WNW 4.6 mph - N/A   Overcast
6:53 PM 30.9 °F 26.2 °F 23.0 °F 72% 30.39 in 10.0 mi WNW 4.6 mph - N/A   Overcast
7:53 PM 30.0 °F 23.2 °F 21.9 °F 72% 30.40 in 10.0 mi WNW 6.9 mph - N/A   Overcast
8:53 PM 28.9 °F 21.1 °F 21.0 °F 72% 30.41 in 10.0 mi WNW 8.1 mph - N/A   Overcast
9:53 PM 28.0 °F 20.8 °F 21.0 °F 75% 30.41 in 10.0 mi Variable 6.9 mph - N/A   Overcast
10:53 PM 27.0 °F 18.7 °F 19.9 °F 75% 30.42 in 10.0 mi WNW 8.1 mph - N/A   Overcast
11:53 PM 26.1 °F 18.4 °F 19.0 °F 75% 30.41 in 10.0 mi WNW 6.9 mph - N/A   Overcast